TimeMDT,TemperatureF,Dew PointF,Humidity,Sea Level PressureIn,VisibilityMPH,Wind Direction,Wind SpeedMPH,Gust SpeedMPH,PrecipitationIn,Events,Conditions,WindDirDegrees,DateUTC
12:53 AM,69.1,35.1,29,29.64,10.0,SSE,11.5,-,N/A,,Clear,160,2011-10-04 06:53:00
1:53 AM,66.9,35.1,31,29.62,10.0,SE,5.8,-,N/A,,Clear,130,2011-10-04 07:53:00
2:53 AM,71.1,35.1,27,29.60,10.0,South,18.4,-,N/A,,Clear,190,2011-10-04 08:53:00
3:53 AM,70.0,35.1,28,29.59,10.0,South,16.1,-,N/A,,Clear,180,2011-10-04 09:53:00
4:53 AM,69.8,37.4,31,29.70,10.0,South,17.3,23.0,N/A,,Clear,170,2011-10-04 10:53:00
5:53 AM,69.1,37.9,32,29.58,10.0,South,17.3,-,N/A,,Clear,170,2011-10-04 11:53:00
6:53 AM,66.9,39.9,37,29.58,10.0,South,16.1,-,N/A,,Clear,180,2011-10-04 12:53:00
7:53 AM,66.2,42.8,43,29.68,10.0,South,17.3,-,N/A,,Clear,190,2011-10-04 13:53:00
8:53 AM,68.0,42.1,39,29.59,10.0,South,13.8,23.0,N/A,,Clear,180,2011-10-04 14:53:00
9:53 AM,72.0,42.1,34,29.57,10.0,South,18.4,24.2,N/A,,Clear,190,2011-10-04 15:53:00
10:53 AM,73.9,42.1,32,29.55,10.0,South,24.2,32.2,N/A,,Clear,180,2011-10-04 16:53:00
11:53 AM,75.2,42.8,31,29.63,10.0,South,18.4,31.1,N/A,,Mostly Cloudy,180,2011-10-04 17:53:00
12:53 PM,80.1,43.0,27,29.51,10.0,South,21.9,29.9,N/A,,Clear,180,2011-10-04 18:53:00
1:53 PM,75.0,43.0,32,29.51,10.0,South,17.3,24.2,N/A,,Overcast,190,2011-10-04 19:53:00
2:11 PM,75.2,46.4,36,29.61,10.0,SW,12.7,-,N/A,,Overcast,230,2011-10-04 20:11:00
2:53 PM,79.0,43.0,28,29.49,10.0,South,18.4,26.5,N/A,,Mostly Cloudy,190,2011-10-04 20:53:00
3:42 PM,69.8,46.4,43,29.61,10.0,WNW,21.9,28.8,N/A,,Mostly Cloudy,290,2011-10-04 21:42:00
3:53 PM,69.8,44.6,40,29.62,10.0,WNW,23.0,31.1,N/A,,Scattered Clouds,290,2011-10-04 21:53:00
4:53 PM,62.1,42.1,48,29.60,10.0,West,18.4,-,0.00,Rain,Light Rain,270,2011-10-04 22:53:00
5:32 PM,59.0,42.8,55,29.68,9.0,West,16.1,-,0.00,,Overcast,280,2011-10-04 23:32:00
5:53 PM,57.2,42.8,59,29.69,10.0,WNW,9.2,-,N/A,,Overcast,300,2011-10-04 23:53:00
6:53 PM,53.6,48.2,82,29.71,10.0,NW,4.6,-,N/A,,Overcast,320,2011-10-05 00:53:00
7:53 PM,55.0,45.0,69,29.64,10.0,Calm,Calm,-,N/A,,Mostly Cloudy,0,2011-10-05 01:53:00
8:53 PM,51.1,46.9,86,29.64,10.0,SE,8.1,-,N/A,,Clear,140,2011-10-05 02:53:00
9:53 PM,51.8,46.4,82,29.67,10.0,SE,6.9,-,N/A,,Clear,140,2011-10-05 03:53:00
10:53 PM,50.0,45.0,83,29.62,10.0,Calm,Calm,-,N/A,,Clear,0,2011-10-05 04:53:00
11:53 PM,50.0,46.9,89,29.65,4.0,WSW,4.6,-,0.05,Rain,Rain,240,2011-10-05 05:53:00